Voltar ao catálogo

STARLINK-37950

AtivoComunicaçõesSSO
NORAD 69560·PAYLOAD·🇺🇸 United States

Lançado Jun 15, 2026 de Vandenberg Space Force Base

Loading…

Próximas Passagens (próximas 24 horas)

TLE

AtualizadoSource: CelesTrak SupGP

Época: Sep 14, 2026, 21:08 UTC

1 69560C 26135Q   26257.88104167  .00018868  00000+0  58582-3 0  2578
2 69560  97.2839 285.6695 0001087  90.8823 154.4540 15.33424948    10

Acompanhe STARLINK-37950 em tempo real com AllMySat

Download on the App Store